{"data":{"norad_id":52287,"epoch":"2026-09-19T18:16:19.863264Z","epoch_age_seconds":123325,"freshness":"FRESH","line1":"1 52287U 22041AC  26262.76134101 -.00000071  00000+0  94774-5 0  9998","line2":"2 52287  53.1595 304.8957 0001060  64.2394 295.8717 15.31698718243844","mean_motion":15.31698718,"eccentricity":0.000106,"inclination_deg":53.1595,"raan_deg":304.8957,"arg_perigee_deg":64.2394,"mean_anomaly_deg":295.8717,"bstar":9.4774e-6,"rev_number":24384,"period_min":94.013266648174,"perigee_km":470.01783543702,"apogee_km":471.46979817018,"semimajor_km":6848.8808168036,"source":"CELESTRAK","updated_at":"2026-09-20T09:00:40.015691Z"}}